Location: Defreestville
(42.6534°N, 73.6960°W)
Time: 22:13:59
(UTC+00:00)

Daily predictions for brighter satellites

Satellite Brightness Start Highest point End
(mag) Time Altitude Azimuth Time Altitude Azimuth Time Altitude Azimuth
Cosmos 304 Rocket 4.2 22:28:24 10° SSW 22:33:11 71° WNW 22:38:01 10° NNE
Unknown 4.4 22:30:14 10° WSW 22:34:16 49° NNW 22:38:19 10° NE
Unknown 4.4 22:30:41 10° WSW 22:34:43 50° NNW 22:38:47 10° NE
Cosmos 1992 Rocket 4.0 22:29:59 10° S 22:35:08 64° ESE 22:40:19 10° NNE
Unknown 4.4 22:31:49 10° WSW 22:35:51 50° NNW 22:39:54 10° NE
Lacrosse 5 3.7 22:34:22 10° NNW 22:37:43 17° NNE 22:41:05 10° NE
Cosmos 2082 Rocket 4.0 22:36:22 10° NNE 22:38:33 12° NE 22:40:43 10° ENE
Unknown 4.4 22:35:00 10° WSW 22:39:01 49° NNW 22:43:04 10° NE
YAOGAN 6 3.4 22:36:58 10° SE 22:40:13 30° ENE 22:43:26 10° N
Cosmos 1503 Rocket 4.0 22:35:36 10° NNW 22:40:45 65° ENE 22:45:54 10° SSE
COSMOS 2406 4.0 22:36:20 10° N 22:41:27 31° NE 22:46:30 10° ESE
SKYMED 2 3.9 22:39:09 10° NNE 22:43:20 46° E 22:47:30 10° S
Meteor 2-12 Rocket 4.5 22:37:31 10° N 22:43:41 69° E 22:49:48 10° SSE
Shenzhou-11 Module 1.8 22:42:39 10° WSW 22:45:25 73° SSE 22:48:05 11° E
YAOGAN 1 3.2 22:42:25 10° SE 22:46:16 33° ENE 22:50:10 10° N
Cosmos 1939 Rocket 4.4 22:46:35 10° ESE 22:49:15 18° ENE 22:51:57 10° NNE
SMAP 4.2 22:45:05 10° S 22:49:36 50° W 22:54:08 10° NNW
Lacrosse 5 rocket 1.2 22:46:56 10° NW 22:50:41 65° NE 22:54:37 10° SE
Meteor 2-10 4.5 22:46:18 10° SSE 22:50:56 36° E 22:55:31 10° NNE
Cosmos 1908 4.4 22:48:19 10° SE 22:51:21 22° E 22:54:23 10° NE
FengYun 1-2 T 4.3 22:48:57 10° SSE 22:54:30 62° ENE 23:00:03 10° N
EO 1 Delta rocket 4.5 22:50:26 10° SE 22:54:33 33° ENE 22:58:48 10° N
COBE Rocket 4.0 22:51:33 10° NNE 22:56:45 82° ESE 23:01:50 10° S
Cosmos 1470 4.3 22:54:27 10° SSW 22:58:13 41° WNW 23:02:00 10° N
Cosmos 1726 Rocket 3.5 22:54:34 10° S 22:58:57 75° E 23:03:20 10° NNE
Cosmos 1844 Rocket 3.0 22:53:52 10° SSW 22:59:31 75° WNW 23:05:11 10° NNE
Cosmos 2285 Rocket 4.1 22:53:44 10° NNW 23:00:13 87° WSW 23:06:37 10° SSE
Cosmos 1328 4.2 23:00:01 10° N 23:03:48 40° ENE 23:07:31 10° SSE
Meteor 1-16 Rocket 4.1 23:00:45 10° S 23:06:18 68° E 23:11:43 10° NNE
Abrixas rocket 3.4 23:04:49 10° SSW 23:07:20 23° SE 23:08:35 18° ESE
Cosmos 2228 3.1 23:03:11 10° S 23:07:34 83° W 23:11:57 10° N
CZ-4 R/B 1.4 23:06:11 10° SSE 23:10:20 79° ENE 23:14:33 10° N
Okean-O 4.0 23:07:42 10° S 23:11:54 42° W 23:16:08 10° NNW
Cosmos 2058 Rocket 3.0 23:07:49 10° S 23:12:07 67° E 23:16:28 10° NNE
CZ-4 R/B 4.4 23:09:45 10° SSE 23:13:52 89° WNW 23:18:01 10° NNW
Cosmos 1356 3.4 23:11:32 10° S 23:14:54 59° E 23:18:18 10° NNE
Cosmos 921 Rocket 3.2 23:13:49 10° SSW 23:18:19 81° WNW 23:22:49 10° NNE
Cosmos 2278 Rocket 2.6 23:13:40 10° S 23:18:52 39° ESE 23:24:05 10° NE
Cosmos 1844 4.2 23:17:25 10° SW 23:23:03 62° WNW 23:28:49 10° NNE
Envisat 3.7 23:19:28 10° S 23:24:28 57° W 23:29:29 10° NNW
OAO 3 Rocket 4.3 23:20:35 10° WSW 23:25:00 33° S 23:27:50 19° ESE
BREEZE M DEB (TANK) 2.4 23:23:25 10° NW 23:25:50 54° NNE 23:28:25 23° E
ATLAS 5 CENTAUR R/B 3.6 23:24:38 10° W 23:28:17 26° NW 23:32:18 10° NNE
COSMO-SKYMED 1 3.4 23:27:12 10° N 23:31:26 52° WNW 23:35:39 10° SSW
CZ-2D R/B 3.2 23:30:11 10° SSE 23:33:57 60° ENE 23:37:46 10° N
Cosmos 1271 Rocket 4.4 23:30:20 10° NNW 23:34:01 37° W 23:37:43 10° SSW
CZ-4C R/B 4.2 23:27:15 10° NW 23:34:16 45° WSW 23:42:00 10° S
Cosmos 1339 Rocket 4.4 23:28:30 10° S 23:34:29 67° E 23:40:34 10° NNE
USA 116 3.5 23:32:14 10° N 23:35:21 67° WNW 23:38:39 10° SSW
Cosmos 1726 2.4 23:31:50 10° SSW 23:35:27 67° W 23:39:06 10° N
Unknown 2.8 23:33:13 10° NW 23:35:47 48° NNE 23:35:47 48° NNE
Cosmos 839 Rocket 4.1 23:33:04 10° NNW 23:39:20 81° ENE 23:46:31 10° SE
DMSP B5D1-3 4.4 23:35:15 10° NNE 23:40:24 76° ESE 23:45:32 10° S
SL-4 R/B 3.0 23:37:24 10° WNW 23:40:56 37° SW 23:43:16 17° SSE
OAO 2 Rocket 4.5 23:38:33 10° WSW 23:43:19 35° S 23:45:52 22° SE
CSL-04 Rocket 4.1 23:38:15 10° S 23:43:45 67° WSW 23:49:15 10° NNW
ASTEX 1 4.4 23:40:14 10° N 23:44:59 48° WNW 23:49:45 10° SSW
Cosmos 482 Debris 3.9 23:41:19 10° WNW 23:45:59 81° SW 23:46:42 51° SE
Cosmos 1242 Rocket 3.5 23:42:24 10° NNW 23:45:59 50° W 23:49:33 10° S
Cosmos 1605 Rocket 3.9 23:42:49 10° N 23:49:04 87° E 23:55:11 10° S
NOAA 11 4.1 23:44:16 10° SSE 23:49:42 83° ENE 23:55:10 10° NNW
Cosmos 1703 3.9 23:49:49 10° NNW 23:53:41 56° W 23:57:30 10° S
